Temp
63 63 62 62 62 61 61 61 60 59 60 60 59 59 59 59 59 59 59 58 59 59 59 59 58 58 54 54 61 73 67 67 69 71 72 70 67 67 63 65 66 63 67 67 69 70 71
62 62 62 62 62 62 61 60 59 58 58 59 58 58 58 58 58 58 58 58 58 58 58 57 57 57 51 55 76 73 68 69 71 72 70 71 70 71 68 66 66 68 68 67 67 67 68
62 62 61 61 61 61 60 59 59 58 58 59 59 58 58 58 58 58 58 58 58 57 57 57 57 56 51 61 77 72 73 72 72 74 69 71 74 71 69 66 69 67 65 66 66 68 67
62 62 61 60 60 59 58 58 58 58 58 59 58 58 57 57 57 57 58 58 57 57 57 57 57 54 55 73 74 72 73 74 73 75 75 75 74 71 69 70 66 64 62 59 66 67 65
62 62 61 60 59 59 58 58 58 58 58 58 58 57 57 56 56 57 57 56 56 57 56 56 52 52 58 75 74 78 77 76 71 72 74 76 74 67 68 63 59 59 56 56 61 63 65
62 61 61 60 59 59 58 58 57 57 57 58 57 57 57 57 56 57 56 56 56 56 55 58 56 53 65 70 74 76 79 77 72 69 69 69 66 63 62 61 53 55 55 57 58 60 60
61 61 61 60 59 59 59 59 58 57 57 57 57 57 56 56 56 55 53 53 52 52 50 59 60 60 66 73 74 76 78 76 74 69 62 64 61 58 61 61 60 59 57 56 56 56 55
59 60 60 60 60 59 59 59 58 57 57 57 57 56 56 56 55 55 54 51 61 66 57 59 61 62 67 70 67 73 78 69 67 61 63 62 56 61 62 61 59 58 55 51 55 56 55
57 59 60 60 60 59 59 59 58 57 57 56 56 56 56 55 55 53 52 53 65 67 57 61 62 64 69 70 66 69 73 69 64 61 59 57 60 62 60 58 57 55 55 53 53 55 56
57 57 59 59 59 59 58 58 58 57 56 55 55 55 54 54 51 52 52 62 61 63 49 56 63 68 70 69 64 72 73 69 63 57 58 58 61 59 58 56 58 53 58 55 52 53 50
57 56 57 58 58 57 57 57 57 57 56 55 55 55 54 56 53 55 64 65 62 62 35 58 64 75 69 66 66 67 70 69 59 58 60 56 57 57 56 56 59 55 58 57 54 52 52
57 56 57 58 57 56 56 56 56 56 55 55 55 55 54 54 52 57 62 63 61 44 35 55 63 62 62 63 62 65 67 68 65 59 59 57 62 61 60 58 59 58 56 54 52 51 45
56 56 56 57 57 56 56 56 55 55 55 55 54 55 54 57 57 61 60 58 44 37 55 53 56 60 58 57 58 59 57 55 56 51 49 56 56 60 60 58 59 58 53 44 42 41 41
55 55 55 56 56 56 56 55 55 54 54 54 54 54 54 55 58 57 58 52 40 48 50 58 57 57 55 57 56 55 55 52 56 54 50 49 47 57 60 58 55 53 53 43 35 36 42
55 55 54 56 56 55 55 55 55 54 54 54 53 52 52 57 58 56 54 37 42 47 56 55 57 53 53 56 55 54 51 52 53 55 51 48 48 59 58 60 60 52 49 52 40 37 39
55 55 54 56 55 55 55 55 54 54 53 53 51 50 55 60 58 56 47 43 51 55 58 57 50 53 49 53 52 52 52 54 54 56 57 53 47 54 58 60 58 56 55 46 44 35 33
55 54 54 55 55 55 55 54 54 53 53 54 53 52 57 58 57 53 42 46 53 58 59 57 53 52 52 51 52 50 50 54 55 56 58 54 51 50 55 53 52 52 49 45 46 40 37
53 53 53 54 55 55 54 54 53 53 53 52 50 47 57 56 49 44 46 51 53 57 60 59 58 55 53 52 50 50 50 53 54 56 54 53 47 43 49 55 56 55 51 49 42 38 35
53 52 52 54 54 54 54 53 52 53 55 52 49 51 57 56 41 37 49 54 57 56 57 57 55 56 55 50 47 49 50 53 54 55 51 52 46 40 46 51 54 52 50 46 43 40 36
52 52 52 54 54 54 53 51 52 53 54 54 51 45 51 49 48 49 50 51 53 57 57 57 55 55 52 50 50 47 49 53 53 52 48 51 45 44 41 45 48 46 47 47 47 40 39
51 51 52 54 54 53 51 52 52 53 53 52 49 47 50 40 43 48 52 52 52 51 57 58 55 54 51 46 47 45 50 51 52 50 49 51 44 44 43 44 46 47 47 46 46 46 43
51 52 53 53 53 52 52 52 52 52 53 51 48 47 46 45 48 49 46 51 52 53 53 53 53 53 53 47 51 46 49 49 49 49 47 46 40 40 40 42 42 43 46 46 46 45 46
51 52 52 52 51 51 51 52 51 52 55 52 51 52 52 39 44 45 44 49 53 54 51 54 54 51 48 51 51 49 49 48 50 48 42 41 36 38 36 37 38 37 42 46 46 47 49
52 52 51 51 50 50 50 51 51 52 54 55 53 51 46 36 41 45 49 53 53 53 51 52 53 51 51 54 52 53 49 47 48 44 45 35 35 33 35 31 32 48 49 49 47 48 50
51 51 51 50 49 50 51 51 51 52 54 55 53 53 47 34 42 47 49 48 49 49 48 49 50 51 53 50 43 42 39 40 39 42 42 42 36 30 34 33 39 48 46 45 44 49 52
49 49 49 49 51 51 51 51 51 52 54 55 53 53 50 42 42 52 48 49 43 43 44 46 51 53 49 38 38 36 36 40 40 40 42 40 36 38 30 33 31 44 49 51 52 41 52
49 50 51 51 50 50 50 50 50 51 53 55 54 54 53 46 50 52 49 48 48 46 43 46 48 47 49 36 34 36 38 41 39 34 31 33 31 33 26 33 37 46 50 52 41 45 48
51 51 51 50 50 50 50 50 51 52 54 56 53 55 55 48 50 53 54 49 48 49 44 47 47 45 39 37 36 36 35 38 38 40 36 37 33 31 27 29 33 48 50 44 50 49 49
50 50 49 49 48 48 49 49 51 53 54 55 54 55 55 52 51 54 55 55 55 56 49 46 50 46 46 39 35 33 33 33 33 37 41 38 41 39 39 40 48 50 50 52 51 50 51
MSLP
1016.61 1016.74 1016.92 1017.14 1017.43 1017.80 1018.21 1018.24 1018.26 1018.52 1018.60 1018.66 1018.39 1018.54 1018.24 1018.16 1018.04 1017.89 1017.84 1017.61 1017.39 1017.56 1017.69 1017.90 1017.94 1017.95 1017.78 1016.46 1013.15 1010.83 1010.71 1011.35 1011.92 1012.03 1011.86 1012.16 1012.47 1012.63 1012.55 1012.44 1012.55 1012.71 1012.43 1011.98 1012.08 1012.10 1012.27
1016.05 1016.42 1016.61 1016.73 1016.90 1017.16 1017.78 1017.85 1017.85 1017.98 1018.25 1018.35 1018.24 1018.18 1017.77 1018.08 1017.93 1017.72 1017.59 1017.48 1017.29 1017.48 1017.68 1017.93 1018.04 1018.06 1017.47 1014.79 1010.69 1010.78 1011.13 1011.65 1011.74 1011.87 1011.99 1012.07 1012.03 1012.05 1012.08 1012.21 1012.23 1011.68 1012.12 1012.18 1012.27 1012.38 1012.80
1015.27 1015.73 1015.96 1016.36 1016.60 1016.44 1017.12 1017.37 1017.34 1017.64 1017.76 1017.79 1017.69 1017.91 1017.48 1017.87 1017.68 1017.61 1017.49 1017.21 1017.19 1017.48 1017.73 1017.95 1018.10 1017.84 1016.69 1012.59 1010.38 1010.69 1010.83 1011.04 1011.04 1011.08 1011.45 1011.54 1011.69 1012.02 1012.10 1012.09 1011.99 1011.88 1012.07 1012.14 1012.57 1012.63 1013.20
1014.45 1014.94 1015.28 1015.70 1016.20 1015.95 1016.50 1016.96 1017.04 1017.22 1017.35 1017.31 1017.29 1017.50 1017.21 1017.61 1017.55 1017.50 1017.39 1017.10 1017.24 1017.54 1017.76 1017.94 1017.94 1017.52 1014.59 1010.56 1010.35 1010.48 1010.36 1010.49 1010.84 1011.04 1011.12 1011.19 1011.70 1012.15 1011.95 1011.93 1012.07 1012.10 1012.32 1012.53 1013.03 1013.15 1013.82
1013.68 1014.04 1014.47 1015.08 1015.47 1015.65 1016.10 1015.98 1016.55 1016.72 1016.98 1016.95 1017.07 1017.02 1017.07 1017.26 1017.38 1017.23 1017.25 1017.11 1017.33 1017.57 1017.74 1017.82 1017.82 1016.96 1013.04 1009.90 1009.97 1009.30 1009.37 1009.76 1010.51 1011.05 1011.26 1011.21 1011.56 1011.97 1012.01 1012.10 1012.38 1012.37 1012.70 1012.98 1013.48 1014.07 1014.12
1012.95 1013.21 1013.76 1014.24 1014.59 1015.03 1015.45 1015.61 1015.82 1016.18 1016.61 1016.45 1016.80 1016.67 1016.78 1016.90 1017.11 1017.01 1017.23 1017.27 1017.39 1017.60 1017.68 1017.66 1017.16 1016.36 1012.15 1010.27 1009.53 1009.10 1008.94 1009.20 1009.94 1010.94 1011.33 1011.64 1011.75 1011.92 1012.02 1012.05 1012.19 1012.60 1013.05 1013.50 1014.00 1014.96 1015.08
1012.49 1012.44 1013.16 1013.71 1014.07 1014.49 1014.74 1015.00 1015.23 1015.57 1016.07 1016.20 1016.44 1016.34 1016.51 1016.70 1016.86 1016.99 1017.35 1017.41 1017.71 1017.33 1016.82 1014.91 1014.35 1013.45 1011.47 1010.23 1009.65 1009.00 1008.89 1009.16 1009.61 1010.04 1010.98 1011.52 1011.61 1011.60 1011.91 1011.94 1012.20 1012.52 1013.10 1013.92 1015.08 1015.87 1016.36
1011.86 1011.80 1012.29 1012.88 1013.34 1013.98 1014.21 1014.35 1014.57 1015.08 1015.52 1015.77 1016.04 1016.09 1016.27 1016.53 1016.61 1016.92 1017.09 1016.42 1014.13 1013.31 1013.75 1013.12 1013.01 1012.44 1011.25 1010.59 1009.96 1009.06 1008.77 1009.52 1009.98 1010.90 1011.57 1011.47 1011.81 1012.04 1012.05 1012.19 1012.56 1013.03 1013.71 1014.74 1015.71 1016.18 1016.46
1011.10 1011.35 1011.35 1012.13 1012.52 1013.04 1013.76 1014.03 1014.08 1014.45 1015.02 1015.34 1015.42 1015.89 1015.92 1016.53 1016.55 1017.11 1016.38 1014.79 1013.09 1012.81 1013.03 1012.28 1011.83 1011.20 1010.22 1010.35 1009.98 1009.47 1009.23 1009.49 1010.17 1010.97 1011.36 1011.91 1012.41 1012.23 1012.49 1013.05 1013.28 1013.68 1014.02 1014.89 1015.54 1016.36 1016.81
1010.30 1010.22 1010.51 1011.22 1011.79 1012.16 1012.63 1013.46 1013.76 1014.05 1014.58 1015.00 1014.95 1015.46 1015.87 1016.41 1016.90 1015.95 1015.11 1012.95 1012.97 1013.22 1012.96 1011.87 1010.82 1009.72 1009.73 1009.81 1009.99 1009.72 1009.62 1010.01 1010.94 1011.89 1012.16 1012.58 1012.71 1012.76 1013.06 1013.34 1013.54 1013.79 1014.31 1014.87 1015.55 1016.08 1016.71
1009.42 1009.98 1009.82 1010.21 1010.99 1011.44 1011.85 1012.62 1013.25 1013.77 1014.10 1014.69 1014.62 1015.07 1015.63 1015.69 1015.32 1014.85 1013.12 1012.69 1012.87 1012.91 1012.95 1011.44 1009.93 1008.87 1009.41 1009.99 1010.13 1010.19 1010.17 1010.18 1011.42 1012.06 1012.61 1013.21 1013.09 1013.05 1013.29 1013.71 1013.51 1014.48 1014.69 1015.12 1015.77 1016.15 1016.56
1008.69 1008.71 1009.18 1009.29 1010.20 1010.66 1011.35 1011.85 1012.63 1013.33 1013.78 1014.17 1014.37 1014.73 1015.56 1016.00 1015.21 1013.17 1012.77 1012.73 1013.00 1013.36 1012.57 1011.12 1009.90 1009.41 1009.88 1010.29 1010.77 1010.79 1010.72 1010.97 1011.81 1012.40 1012.71 1013.16 1013.15 1013.32 1013.58 1013.88 1013.77 1014.32 1015.08 1015.74 1016.34 1016.51 1016.89
1007.74 1007.73 1008.04 1008.63 1009.12 1009.92 1010.67 1011.28 1011.96 1012.72 1013.40 1013.71 1014.15 1014.29 1014.95 1014.60 1013.51 1012.75 1012.85 1013.27 1013.81 1013.22 1012.32 1011.36 1010.57 1010.24 1010.57 1011.25 1011.69 1011.75 1011.99 1012.33 1012.59 1013.01 1013.51 1013.63 1013.81 1013.61 1013.53 1013.91 1014.45 1014.67 1015.39 1016.39 1016.94 1017.17 1017.23
1006.73 1006.95 1007.31 1007.82 1008.30 1009.16 1010.01 1010.59 1011.40 1012.13 1013.11 1013.53 1013.96 1014.16 1014.36 1013.77 1012.81 1013.04 1013.21 1013.46 1013.79 1012.95 1012.17 1011.22 1010.86 1010.89 1011.29 1011.72 1012.35 1012.55 1012.80 1013.28 1013.18 1013.23 1014.17 1014.24 1014.28 1013.90 1013.86 1014.04 1014.37 1015.07 1015.61 1016.40 1017.18 1017.92 1017.68
1005.86 1006.21 1006.68 1006.89 1007.58 1008.23 1009.18 1010.21 1010.71 1011.65 1012.76 1013.36 1013.96 1014.40 1014.19 1012.27 1012.33 1013.48 1013.82 1014.18 1013.24 1012.62 1011.66 1011.27 1011.20 1011.40 1011.84 1012.03 1012.37 1013.02 1013.58 1013.91 1014.04 1013.87 1014.06 1014.52 1014.61 1014.33 1014.26 1014.24 1014.70 1015.53 1016.21 1016.92 1017.72 1019.02 1018.57
1005.03 1005.29 1005.87 1006.19 1006.65 1007.48 1008.40 1009.52 1010.31 1011.28 1012.30 1012.94 1013.14 1013.62 1012.78 1011.66 1011.93 1012.91 1013.48 1013.47 1012.81 1011.96 1011.19 1011.01 1011.22 1011.50 1012.07 1012.48 1013.00 1013.51 1013.98 1014.29 1014.30 1014.20 1014.09 1014.63 1014.96 1014.91 1014.75 1014.72 1015.16 1015.28 1016.44 1017.25 1017.88 1018.81 1018.85
1004.20 1004.43 1004.76 1005.08 1005.80 1006.67 1007.76 1008.73 1009.99 1010.95 1011.64 1012.51 1012.67 1012.92 1011.62 1011.42 1011.96 1012.71 1013.41 1013.05 1012.19 1011.17 1010.87 1010.71 1010.94 1011.56 1012.14 1012.73 1013.39 1013.92 1014.39 1014.63 1014.57 1014.58 1014.46 1014.83 1015.09 1015.67 1015.37 1015.29 1015.35 1016.09 1016.67 1017.75 1018.43 1019.16 1019.05
1003.33 1003.50 1004.24 1003.78 1005.03 1006.00 1006.87 1008.17 1009.51 1010.62 1011.43 1012.82 1012.17 1012.15 1011.41 1011.21 1012.39 1013.29 1013.17 1012.34 1011.56 1010.87 1010.44 1010.36 1010.49 1011.35 1012.13 1012.95 1013.64 1014.10 1014.37 1014.60 1014.80 1014.94 1015.19 1015.50 1015.87 1016.19 1016.08 1015.77 1015.81 1015.92 1016.55 1017.30 1018.43 1019.60 1019.84
1002.53 1002.86 1003.10 1003.25 1004.28 1005.33 1006.26 1007.45 1008.82 1010.01 1010.45 1011.22 1011.50 1011.62 1011.30 1011.03 1012.20 1013.11 1012.71 1011.95 1011.15 1010.76 1010.36 1010.28 1010.76 1011.25 1012.29 1013.18 1014.06 1014.46 1014.73 1015.07 1015.12 1015.35 1015.60 1015.74 1016.54 1016.95 1016.85 1016.65 1016.28 1016.41 1016.94 1017.63 1018.32 1018.98 1019.22
1001.56 1001.84 1002.55 1003.18 1003.57 1004.76 1005.89 1007.02 1007.87 1008.92 1009.79 1010.06 1010.74 1011.50 1011.78 1011.68 1011.98 1012.04 1012.32 1011.76 1011.17 1010.63 1010.46 1010.43 1011.13 1011.60 1012.64 1013.64 1014.17 1014.83 1015.19 1015.47 1015.58 1015.86 1016.05 1016.14 1017.12 1017.18 1017.21 1016.99 1016.93 1017.01 1017.17 1017.61 1017.84 1018.60 1018.63
1000.84 1001.03 1002.25 1002.24 1003.11 1004.36 1005.58 1006.26 1007.22 1008.13 1009.42 1010.28 1010.30 1010.76 1010.60 1011.88 1012.48 1012.09 1011.80 1011.54 1011.23 1010.90 1010.58 1010.57 1011.38 1011.92 1012.53 1013.91 1014.64 1015.12 1015.56 1015.98 1016.26 1016.52 1016.86 1017.11 1017.86 1018.30 1018.27 1018.06 1017.73 1017.35 1017.27 1017.46 1017.59 1017.55 1017.59
999.95 1001.18 1001.45 1001.76 1002.89 1004.12 1005.20 1005.79 1006.68 1008.00 1009.30 1010.17 1009.88 1010.24 1010.84 1011.50 1011.64 1012.14 1011.97 1011.67 1011.36 1011.34 1011.30 1011.22 1011.67 1012.54 1012.89 1013.60 1014.04 1014.84 1015.32 1016.06 1016.29 1017.31 1017.75 1018.30 1019.12 1019.37 1019.37 1018.98 1018.50 1017.88 1017.34 1017.34 1017.33 1017.24 1016.97
999.69 1000.66 1001.31 1001.88 1003.03 1004.08 1004.71 1005.53 1006.49 1007.39 1008.09 1008.88 1009.10 1009.04 1009.27 1012.21 1012.38 1012.33 1012.18 1011.71 1011.42 1011.48 1011.91 1011.86 1012.15 1013.01 1013.78 1014.25 1014.49 1014.98 1015.47 1015.86 1016.42 1017.34 1018.51 1019.28 1019.80 1020.37 1020.26 1019.72 1019.00 1018.26 1016.37 1016.30 1016.37 1016.21 1016.00
999.67 1000.32 1000.98 1001.96 1002.93 1003.84 1004.54 1005.21 1005.75 1006.82 1006.90 1007.55 1007.81 1008.39 1009.87 1012.49 1012.57 1012.10 1011.80 1011.43 1011.50 1011.86 1012.19 1012.87 1013.07 1013.48 1014.82 1014.84 1015.14 1015.66 1016.35 1016.95 1017.46 1018.42 1018.84 1019.78 1020.41 1020.90 1021.12 1020.59 1019.09 1016.21 1015.82 1015.77 1015.72 1015.42 1015.41
999.43 1000.09 1001.18 1002.05 1002.99 1003.52 1003.94 1004.67 1005.39 1005.96 1006.69 1007.32 1007.32 1007.67 1009.36 1011.63 1011.79 1011.74 1011.81 1011.82 1012.12 1012.54 1013.09 1013.70 1014.21 1014.46 1014.83 1015.36 1016.34 1017.36 1017.99 1018.19 1018.94 1019.43 1019.61 1019.84 1020.48 1021.48 1021.69 1020.69 1018.50 1016.03 1015.72 1015.71 1015.54 1014.62 1014.37
999.45 1000.23 1001.12 1002.00 1002.57 1002.92 1003.54 1004.21 1004.92 1005.69 1006.47 1007.25 1007.31 1007.22 1008.43 1010.33 1011.21 1010.59 1011.47 1011.76 1012.32 1013.08 1013.96 1014.66 1015.09 1015.18 1015.62 1016.69 1017.39 1018.47 1018.87 1018.86 1019.38 1019.89 1020.22 1020.46 1020.52 1020.91 1021.91 1020.76 1018.72 1016.15 1015.34 1015.20 1015.27 1014.84 1014.13
999.72 1000.50 1001.25 1001.86 1002.13 1002.58 1003.23 1003.74 1004.59 1005.37 1006.19 1006.77 1007.15 1007.10 1008.04 1009.57 1009.99 1010.16 1010.48 1011.16 1011.81 1012.65 1013.77 1014.81 1015.43 1015.76 1016.11 1017.49 1018.58 1019.41 1019.39 1019.22 1019.48 1019.82 1020.46 1021.00 1021.39 1021.46 1021.52 1020.13 1018.07 1015.99 1015.65 1015.51 1015.58 1015.12 1014.58
1000.00 1000.68 1001.21 1001.48 1002.10 1002.62 1003.00 1003.52 1004.12 1004.84 1005.78 1006.37 1007.27 1007.31 1007.62 1009.26 1010.01 1009.85 1009.91 1010.50 1011.29 1011.71 1012.99 1014.49 1015.32 1015.97 1016.85 1017.85 1019.01 1019.65 1019.75 1019.41 1019.53 1019.44 1019.62 1019.83 1020.45 1021.03 1021.17 1019.67 1017.50 1015.89 1015.94 1015.78 1014.85 1014.61 1014.74
1000.09 1000.81 1001.43 1001.96 1002.29 1002.58 1002.76 1003.05 1003.65 1004.49 1005.40 1005.84 1007.07 1007.71 1007.69 1008.73 1010.09 1010.10 1010.09 1009.97 1010.10 1010.18 1011.38 1013.45 1013.59 1014.57 1015.32 1017.18 1019.03 1019.70 1020.08 1020.17 1020.04 1019.73 1019.29 1019.25 1018.66 1018.80 1018.96 1017.19 1015.94 1015.65 1015.13 1014.74 1014.90 1014.95 1014.89
Wind_Speed
18 16 14 14 13 11 13 12 10 10 13 14 13 17 15 15 14 12 11 8 7 8 7 7 7 7 3 1 10 2 9 12 10 8 9 7 5 5 5 4 5 3 4 4 1 7 6
17 16 15 14 13 12 13 12 10 9 10 15 14 16 13 15 13 12 10 8 6 5 4 5 5 4 1 4 3 7 11 11 7 7 7 7 6 5 2 2 4 2 5 3 4 7 4
19 18 16 14 14 13 13 11 10 10 10 13 15 16 11 13 12 12 10 7 4 3 3 4 4 1 1 13 2 9 6 7 8 10 7 4 5 3 3 2 2 4 5 4 4 3 4
20 19 17 15 14 13 12 11 11 10 10 12 15 14 12 13 10 10 8 4 2 2 2 3 4 1 8 5 3 7 5 4 5 4 2 5 5 2 1 2 4 2 3 4 1 3 3
21 20 18 16 15 13 12 11 11 10 11 12 14 12 10 10 11 8 5 2 2 2 2 2 2 1 10 8 3 3 7 4 9 4 5 6 8 4 3 4 2 7 4 3 4 8 4
22 21 20 18 16 15 13 12 11 10 11 12 14 12 12 11 9 6 5 3 3 3 2 4 3 2 7 3 4 4 4 3 3 8 6 4 2 3 3 3 5 4 5 2 5 5 11
20 22 20 19 17 16 15 13 11 10 9 12 13 13 10 8 7 9 7 3 3 1 3 8 4 3 5 7 3 2 1 3 2 5 3 2 3 3 3 1 2 5 4 4 4 2 8
11 22 22 20 19 17 16 14 11 10 10 13 12 9 7 7 10 12 4 3 5 2 3 10 5 7 6 3 3 4 1 5 2 6 5 5 3 2 4 5 5 4 6 4 4 3 6
12 18 23 22 20 18 16 14 11 11 11 10 8 8 6 10 13 6 5 9 2 5 1 4 6 5 4 7 4 3 1 2 7 4 3 4 2 2 4 3 6 2 6 4 5 7 7
15 12 24 23 21 19 17 14 12 11 10 10 7 8 12 14 5 5 6 4 8 5 4 4 3 3 3 3 2 2 3 4 5 4 4 5 3 4 3 3 2 4 2 8 12 2 3
18 13 23 24 21 19 16 14 12 11 9 10 8 10 17 10 2 4 2 1 5 3 4 4 2 2 2 4 4 3 3 5 6 4 2 1 1 3 6 1 1 3 6 8 3 4 4
20 17 19 25 22 19 17 14 12 11 10 9 9 13 16 8 2 7 3 4 3 8 4 2 1 2 4 6 4 4 4 6 4 5 5 3 2 3 2 2 4 9 6 6 4 2 1
21 19 14 25 23 20 18 15 13 12 10 9 11 17 14 5 4 4 2 3 6 5 2 2 3 2 3 2 4 4 4 4 2 4 4 5 3 2 2 4 3 3 4 1 1 0 4
21 20 14 25 23 21 18 16 13 11 10 8 11 17 8 7 1 6 3 5 3 3 5 1 3 3 5 2 3 4 3 3 5 5 4 3 1 3 4 2 3 2 3 5 5 3 1
21 21 17 24 24 21 19 15 14 11 10 10 14 4 4 6 7 4 4 5 7 6 4 6 3 5 1 2 5 4 3 2 1 2 5 4 1 2 3 1 1 3 2 2 7 2 0
22 22 18 27 25 22 19 16 14 13 13 19 5 4 4 2 7 4 6 6 4 5 2 2 4 3 4 2 4 3 1 1 2 2 1 5 3 1 1 1 6 1 6 3 2 4 3
24 20 19 27 26 23 20 18 15 14 16 20 3 3 2 4 4 4 4 6 5 6 5 5 5 4 3 5 3 2 4 1 1 1 2 3 3 3 1 1 4 3 3 6 5 1 3
25 20 17 28 26 24 22 18 16 14 14 10 3 3 1 3 5 1 5 6 3 4 3 4 4 4 5 3 4 3 6 1 1 1 4 1 4 3 1 0 2 1 3 4 4 4 2
23 20 16 27 25 23 22 22 19 19 24 6 5 3 0 4 5 1 2 2 2 2 1 3 3 3 2 5 5 2 3 2 1 3 5 5 1 3 3 2 1 2 3 4 5 2 6
19 17 17 25 25 23 22 22 22 23 26 2 4 4 3 4 1 9 5 3 1 3 2 3 5 4 4 3 4 5 3 2 2 3 7 5 3 4 7 3 1 4 4 5 4 3 5
16 22 26 27 24 22 21 21 21 21 22 1 1 3 3 4 1 5 4 5 5 2 1 2 4 2 6 5 3 3 2 2 4 1 3 2 4 2 1 1 2 2 4 8 7 4 7
21 19 23 23 23 21 21 19 18 18 18 1 5 5 4 2 6 7 2 6 7 2 1 1 7 3 2 6 6 9 7 4 4 2 2 3 4 1 4 1 3 3 5 7 8 4 10
17 21 21 22 22 22 20 17 18 21 14 3 2 2 6 3 3 6 6 7 8 6 2 4 6 5 4 1 3 4 6 9 5 5 3 2 6 3 4 3 2 6 10 12 6 6 7
22 24 22 20 20 20 19 18 19 23 14 3 3 4 6 2 3 7 8 4 7 6 6 3 4 5 1 10 9 9 12 13 13 10 3 5 4 2 2 1 2 4 2 2 10 6 13
22 21 22 20 20 18 17 18 20 23 21 1 2 5 5 3 3 3 6 6 7 4 4 4 4 2 9 3 5 5 5 6 5 7 6 3 5 4 3 3 6 6 4 6 7 6 12
22 21 20 17 17 15 15 17 18 18 20 2 1 3 5 9 6 6 6 5 6 4 3 3 4 4 5 4 4 4 4 4 1 1 2 4 5 4 3 3 5 6 2 3 3 5 2
19 18 17 15 14 14 14 16 17 19 20 3 2 2 5 5 0 6 5 6 5 5 5 5 5 1 3 3 4 3 3 1 4 4 2 2 3 3 3 4 8 7 1 2 3 5 1
18 16 14 13 13 12 13 16 18 21 19 3 1 2 4 3 1 0 4 7 4 2 7 6 5 2 3 4 3 4 3 4 2 3 6 6 6 3 4 1 7 5 3 5 5 2 3
16 14 13 13 13 12 11 14 19 22 19 6 4 1 1 5 3 1 3 3 1 5 8 1 4 5 5 6 1 3 3 1 2 3 1 3 5 4 9 6 3 5 4 1 1 3 2
Wind_Direction
230 228 226 223 219 223 245 255 264 269 281 289 295 294 298 296 292 285 281 279 278 279 289 295 312 319 338 281 252 348 92 136 152 159 168 159 150 173 189 207 160 207 201 231 273 130 144
227 227 226 226 230 223 242 254 261 264 270 288 292 292 298 293 292 282 273 266 267 276 290 296 298 312 247 269 201 129 120 134 179 163 166 147 197 206 209 219 200 221 119 141 72 125 124
222 222 223 227 226 212 231 244 249 261 265 285 290 290 296 288 285 276 267 264 258 278 282 284 272 253 239 245 204 153 151 186 180 181 163 205 174 176 152 220 212 134 93 87 49 109 109
220 221 221 223 220 210 220 237 247 257 263 283 287 287 291 284 281 273 264 259 247 256 264 264 258 159 250 240 202 243 170 211 169 188 130 190 149 221 259 78 22 124 79 99 87 118 34
219 218 216 215 215 216 221 225 242 252 259 281 284 284 284 278 270 258 242 120 165 230 225 197 156 109 266 315 218 243 180 159 137 150 186 78 136 186 100 169 94 28 138 132 108 30 134
221 216 213 210 209 214 220 226 233 242 256 277 279 280 277 271 254 214 174 121 167 192 194 205 243 275 271 305 297 315 196 160 145 128 105 155 120 139 95 170 177 164 128 156 125 16 56
254 215 213 209 209 215 220 224 228 232 260 271 272 276 270 254 204 151 125 109 133 220 223 197 191 265 294 293 286 287 69 110 93 65 72 162 148 126 130 67 136 123 112 101 45 54 76
268 223 211 207 207 214 220 223 221 228 247 263 264 265 253 200 161 149 140 209 234 209 306 218 254 279 259 254 317 303 49 109 129 116 222 45 86 314 68 64 82 87 129 91 106 86 92
249 249 208 207 206 209 217 223 217 224 233 239 248 250 203 162 135 153 216 233 17 354 125 266 190 207 229 150 200 240 59 60 70 28 20 140 143 68 73 79 104 71 104 164 128 104 79
228 242 215 206 204 205 206 216 217 220 226 235 227 217 155 141 145 174 230 244 228 189 75 285 228 253 136 154 70 295 16 109 51 144 114 78 354 112 103 94 170 79 76 125 128 109 142
227 249 224 203 202 202 199 201 211 219 221 231 212 191 164 175 124 203 241 64 143 65 89 254 231 157 81 145 171 13 349 42 140 154 148 232 102 99 72 320 68 123 118 122 116 109 152
234 228 227 201 200 196 197 193 205 215 222 223 203 176 161 258 249 243 333 92 50 49 260 221 234 123 72 12 26 314 50 41 136 85 43 92 24 59 122 63 58 149 89 59 64 82 233
233 220 227 203 195 193 193 192 200 208 216 210 201 168 163 196 208 340 127 68 45 124 305 208 166 125 95 48 51 37 34 36 119 100 31 19 348 319 71 96 102 103 93 48 349 10 231
233 215 227 206 193 190 190 187 193 195 207 202 190 162 227 254 325 18 57 59 154 219 221 351 124 96 116 167 36 21 87 79 32 71 106 139 321 14 348 75 142 72 151 160 198 200 240
236 214 228 210 193 184 182 189 184 182 182 176 140 157 257 247 220 118 80 76 203 208 200 158 83 93 68 73 113 77 54 98 45 16 123 137 193 338 35 69 140 158 147 115 106 22 279
237 218 225 209 190 181 177 183 177 169 169 163 161 164 234 164 132 105 81 214 219 208 213 172 135 141 137 140 83 83 120 264 130 37 200 189 114 37 42 121 59 126 133 120 38 158 249
233 219 229 202 188 176 175 175 173 170 169 181 139 140 213 116 86 64 157 218 228 238 203 174 157 124 130 136 115 127 172 282 197 74 103 131 104 262 190 18 166 142 124 65 101 59 174
228 214 241 197 182 175 170 169 164 162 155 164 158 164 231 122 81 347 157 197 195 270 162 215 119 108 139 128 128 147 176 202 147 220 154 155 123 137 166 286 292 140 139 135 126 181 68
218 214 234 189 175 172 172 166 161 162 168 150 153 150 299 113 131 261 263 211 176 291 271 137 99 107 78 132 109 138 143 104 159 137 162 187 48 87 14 356 340 208 132 105 103 100 189
204 217 240 195 169 169 169 172 163 175 193 110 130 122 2 56 79 139 155 168 146 207 224 95 119 85 104 95 35 155 130 46 85 97 57 85 111 164 188 191 171 175 173 167 140 148 167
191 206 231 178 165 167 172 168 172 177 189 92 67 190 171 180 279 139 133 165 146 250 165 53 75 127 152 118 97 122 133 125 41 134 57 100 151 134 115 37 251 231 180 187 204 177 190
186 209 186 157 159 167 176 167 166 166 143 235 141 136 36 81 130 118 158 197 148 179 272 98 118 126 102 148 179 189 146 188 185 73 81 15 158 157 193 354 9 276 237 210 228 223 253
199 201 168 152 165 175 175 166 161 157 159 162 212 57 105 317 104 118 195 179 176 137 49 48 140 114 90 115 91 67 79 78 102 139 125 90 138 125 248 358 1 315 224 202 191 203 200
189 166 152 157 168 175 171 168 161 171 181 149 187 111 92 191 139 183 174 158 149 175 144 64 69 101 177 128 112 66 58 69 65 49 62 125 94 62 164 13 254 244 180 186 223 232 217
155 146 157 163 173 174 166 167 170 181 189 156 167 116 121 133 179 130 150 119 97 68 74 83 11 339 143 63 72 57 355 24 23 39 27 43 121 100 155 205 302 288 189 183 183 273 213
144 149 156 168 170 157 164 170 177 181 180 165 157 116 107 122 237 148 140 175 141 118 52 73 36 80 66 75 78 131 189 208 217 90 54 58 63 109 141 183 234 244 273 195 164 282 250
142 149 151 151 144 149 162 167 172 175 173 144 141 123 94 114 215 141 159 162 132 102 101 121 161 188 53 77 87 145 205 214 191 170 189 42 14 166 147 232 285 254 304 172 107 256 196
132 132 134 126 130 144 159 169 168 167 170 144 86 61 118 102 322 64 163 134 114 124 136 172 87 318 57 79 133 181 167 206 149 160 181 177 157 180 111 193 272 183 126 173 225 275 241
118 118 116 121 129 132 143 158 161 162 173 167 107 49 23 80 139 99 91 68 293 165 127 198 145 158 167 92 125 114 144 127 129 226 340 236 197 180 195 219 243 220 243 224 170 268 259